Terminal Aerodrome Forecast
Issued by NWS

Home | Current Version | Previous Version | Text Only | Print | Product List | Glossary On
Versions: 1 2 3 4 5 6 7 8 9 10 11 12 13
000
FTUS44 KBMX 011500 AAA
TAFANB
TAF AMD
KANB 011545Z 0116/0212 17008KT P6SM OVC025
     FM011900 17008G15KT 2SM RA BR OVC008
     FM020500 25009KT 5SM -RA BR OVC015
     FM020900 27009G15KT P6SM OVC025=

USA.gov is the U.S. government's official web portal to all federal, state and local government web resources and services.